Regional Weather Roundup
Issued by NWS

Home | Current Version | Previous Version | Text Only | Print | Product List | Glossary Off
Versions: 1 2 3 4 5 6 7 8 9 10 11 12 13 14 15 16 17 18 19 20 21 22 23 24 25 26 27 28 29 30 31 32 33 34 35 36 37 38 39 40 41 42 43 44 45 46 47 48 49 50

000
ASUS43 KFSD 290702
RWRSD

WEATHER ROUNDUP FOR SOUTH DAKOTA
NATIONAL WEATHER SERVICE SIOUX FALLS SD
200 AM CDT WED JUL 29 2015

NOTE: "FAIR" INDICATES FEW OR NO CLOUDS BELOW 12,000 FEET WITH NO
SIGNIFICANT WEATHER AND/OR OBSTRUCTIONS TO VISIBILITY.


SDZ001>005-009-010-012>017-290800-
NORTHWEST AND NORTH CENTRAL SOUTH DAKOTA

CITY           SKY/WX    TMP DP  RH WIND       PRES   REMARKS
BUFFALO          N/A     56  36  47 W15       30.05S
MOBRIDGE       CLEAR     63  47  55 W8        29.98R
$$

SDZ012>016-024>037-041>051-057-063-072>074-290800-
SOUTHWEST AND SOUTH CENTRAL SOUTH DAKOTA

CITY           SKY/WX    TMP DP  RH WIND       PRES   REMARKS
RAPID CTY ARPT CLEAR     52  44  74 S7        30.20R
PIERRE         CLEAR     63  46  54 SW12      30.06S
CUSTER         CLEAR     49  33  54 S5        30.31R
ELLSWORTH AFB  CLEAR     58  40  51 NW10      30.16S
PHILIP           N/A     55  48  77 W7        30.13S
PINE RIDGE     CLEAR     47  42  83 CALM      30.22S
WINNER         FAIR      63  47  55 SW8       30.13R
$$

SDZ004>011-016>023-039-040-290800-
NORTHEAST SOUTH DAKOTA

CITY           SKY/WX    TMP DP  RH WIND       PRES   REMARKS
ABERDEEN       CLEAR     61  49  64 SW14      29.95S
WATERTOWN      CLEAR     61  50  67 SW9       29.98S
BROOKINGS      CLEAR     61  52  72 SW9       30.04F
SISSETON         N/A     67  48  50 NW16      29.90R
$$

SDZ017-020-022-023-036>040-048>070-290800-
SOUTHEAST SOUTH DAKOTA

CITY           SKY/WX    TMP DP  RH WIND       PRES   REMARKS
SIOUX FALLS    CLEAR     61  56  83 CALM      30.06S
HURON          CLEAR     62  49  62 W9        30.03R
MITCHELL       CLEAR     63  52  67 W7        30.06S
YANKTON        CLEAR     61  54  77 NW8       30.08R
$$

ABBREVIATIONS USED IN REMARKS
   TC - TEMPERATURE IN CELSIUS
  WCI - WIND CHILL INDEX
   HX - HEAT INDEX
  VSB - VISIBILITY



USA.gov is the U.S. government's official web portal to all federal, state and local government web resources and services.